Regional Weather Roundup
Issued by NWS

Home | Current Version | Previous Version | Graphics & Text | Print | Product List | Glossary On
Versions: 1 2 3 4 5 6 7 8 9 10 11 12 13 14 15 16 17 18 19 20 21 22 23 24 25 26 27 28 29 30 31 32 33 34 35 36 37 38 39 40 41 42 43 44 45 46 47 48 49 50
000
ASUS45 KBOI 282110
RWRID

IDAHO REGIONAL WEATHER ROUNDUP
NATIONAL WEATHER SERVICE BOISE ID
300 PM MDT THU APR 28 2016

NOTE: "FAIR" INDICATES FEW OR NO CLOUDS BELOW 12000 FEET
WITH NO SIGNIFICANT WEATHER AND/OR OBSTRUCTIONS TO VISIBILITY

IDZ012-014-282200-
SOUTHWEST IDAHO


CITY           SKY/WX    TMP DP  RH WIND       PRES   REMARKS
BOISE          PTSUNNY   68  35  29 NW21G35   29.79F
CALDWELL       FAIR      66  37  34 NW15G24   29.82S
MOUNTAIN HOME  MOSUNNY   66  35  30 NW23G31   29.79F
$$

IDZ016-017-282200-
SOUTHCENTRAL IDAHO


CITY           SKY/WX    TMP DP  RH WIND       PRES   REMARKS
BURLEY         CLOUDY    58  36  43 NW10G18   29.80S
JEROME         PTSUNNY   58  36  43 SW9       29.83S
TWIN FALLS     FAIR      56  34  43 MISG      29.84S
$$

IDZ019>023-282200-
SOUTHEAST IDAHO


CITY           SKY/WX    TMP DP  RH WIND       PRES   REMARKS
IDAHO FALLS    PTSUNNY   58  24  27 NE3       29.79F
POCATELLO      CLOUDY    61  29  29 N9G16     29.79S
REXBURG        CLOUDY    55  24  30 N8        29.80R
$$

IDZ006-010-011-018-031-032-282200-
CENTRAL IDAHO MOUNTAINS


CITY           SKY/WX    TMP DP  RH WIND       PRES   REMARKS
MCCALL         CLOUDY    48  29  47 N15G22    29.89S
HAILEY         PTSUNNY   54  37  54 E8        29.82S
STANLEY          N/A     47  24  40 VRB5      29.88S
SALMON         PTSUNNY   50  28  43 N3        29.90S
CHALLIS        CLOUDY    50  24  36 E8G20     29.88S
$$

IDZ002-004-006-007-026-282200-
NORTHERN IDAHO


CITY           SKY/WX    TMP DP  RH WIND       PRES   REMARKS
LEWISTON       FAIR      66  41  40 W13G21    29.94F
LOWELL           N/A     59  40  49 S8        29.93F
COEUR D`ALENE  FAIR      64  36  34 E10       29.94S
MULLAN PASS    CLOUDY    39  27  62 CALM      29.98F
$$



USA.gov is the U.S. government's official web portal to all federal, state and local government web resources and services.